Hourly Weather Gogol

Today, 17 May, Monday

Time Temperature Precipitation Wind Pressure Humidity
00:00 +16°C° 0 mm 3 mps 741 mmHg 78%
01:00 +16°C° 0.4 mm 3 mps 741 mmHg 82%
02:00 +15°C° 0.4 mm 4 mps 741 mmHg 86%
03:00 +14°C° 0.4 mm 4 mps 741 mmHg 90%
04:00 +15°C° 0.1 mm 4 mps 741 mmHg 91%
05:00 +15°C° 0.1 mm 4 mps 741 mmHg 93%
06:00 +15°C° 0.1 mm 4 mps 740 mmHg 94%
07:00 +18°C° 0 mm 4 mps 740 mmHg 87%
08:00 +20°C° 0 mm 5 mps 740 mmHg 79%
09:00 +22°C° 0 mm 5 mps 740 mmHg 72%
10:00 +23°C° 0 mm 6 mps 740 mmHg 66%
11:00 +24°C° 0 mm 6 mps 740 mmHg 60%
12:00 +26°C° 0 mm 6 mps 740 mmHg 54%
13:00 +27°C° 0 mm 6 mps 740 mmHg 54%
14:00 +27°C° 0 mm 6 mps 740 mmHg 54%
15:00 +28°C° 0 mm 7 mps 739 mmHg 53%
16:00 +26°C° 0 mm 6 mps 739 mmHg 57%
17:00 +24°C° 0 mm 6 mps 739 mmHg 61%
18:00 +23°C° 0 mm 6 mps 739 mmHg 64%
19:00 +22°C° 0 mm 6 mps 739 mmHg 67%
20:00 +21°C° 0 mm 6 mps 739 mmHg 69%
21:00 +20°C° 0 mm 6 mps 739 mmHg 72%
22:00 +20°C° 0 mm 5 mps 739 mmHg 73%
23:00 +19°C° 0 mm 5 mps 739 mmHg 75%

Tomorrow, 18 May, Tuesday

Time Temperature Precipitation Wind Pressure Humidity
00:00 +17°C° 0 mm 5 mps 739 mmHg 76%
01:00 +18°C° 0 mm 4 mps 739 mmHg 77%
02:00 +17°C° 0 mm 4 mps 739 mmHg 79%
03:00 +16°C° 0 mm 3 mps 739 mmHg 82%
04:00 +16°C° 0 mm 3 mps 739 mmHg 82%
05:00 +16°C° 0 mm 3 mps 739 mmHg 82%
06:00 +16°C° 0 mm 3 mps 738 mmHg 82%
07:00 +17°C° 0 mm 4 mps 739 mmHg 77%
08:00 +19°C° 0 mm 4 mps 739 mmHg 71%
09:00 +21°C° 0 mm 5 mps 739 mmHg 66%
10:00 +22°C° 0 mm 5 mps 739 mmHg 61%
11:00 +23°C° 0 mm 6 mps 739 mmHg 56%
12:00 +26°C° 0 mm 6 mps 739 mmHg 51%
13:00 +26°C° 0 mm 6 mps 738 mmHg 52%
14:00 +27°C° 0 mm 6 mps 738 mmHg 52%
15:00 +27°C° 0 mm 5 mps 738 mmHg 52%
16:00 +26°C° 0 mm 5 mps 738 mmHg 57%
17:00 +25°C° 0 mm 5 mps 737 mmHg 61%
18:00 +23°C° 0 mm 6 mps 737 mmHg 66%
19:00 +22°C° 0 mm 5 mps 737 mmHg 70%
20:00 +20°C° 0 mm 4 mps 737 mmHg 75%
21:00 +19°C° 0 mm 3 mps 737 mmHg 80%
22:00 +18°C° 0 mm 3 mps 737 mmHg 82%
23:00 +18°C° 0 mm 2 mps 737 mmHg 84%

Day after tomorrow, 19 May, Wednesday

Time Temperature Precipitation Wind Pressure Humidity
00:00 +17°C° 0 mm 2 mps 737 mmHg 85%
01:00 +17°C° 0.1 mm 2 mps 737 mmHg 86%
02:00 +17°C° 0.1 mm 2 mps 737 mmHg 88%
03:00 +17°C° 0.1 mm 2 mps 737 mmHg 89%
04:00 +17°C° 0 mm 2 mps 737 mmHg 89%
05:00 +17°C° 0 mm 2 mps 737 mmHg 90%
06:00 +17°C° 0 mm 2 mps 737 mmHg 91%
07:00 +17°C° 0 mm 3 mps 737 mmHg 86%
08:00 +18°C° 0 mm 3 mps 737 mmHg 81%
09:00 +19°C° 0 mm 4 mps 738 mmHg 76%
10:00 +19°C° 0.1 mm 4 mps 738 mmHg 77%
11:00 +19°C° 0.1 mm 5 mps 738 mmHg 77%
12:00 +17°C° 0.1 mm 5 mps 738 mmHg 77%
13:00 +19°C° 0.1 mm 5 mps 738 mmHg 74%
14:00 +20°C° 0.1 mm 6 mps 738 mmHg 72%
15:00 +20°C° 0.1 mm 6 mps 738 mmHg 70%
16:00 +20°C° 0.3 mm 5 mps 738 mmHg 72%
17:00 +19°C° 0.3 mm 4 mps 738 mmHg 75%
18:00 +19°C° 0.3 mm 4 mps 738 mmHg 78%
19:00 +18°C° 0.3 mm 3 mps 738 mmHg 81%
20:00 +17°C° 0.3 mm 3 mps 738 mmHg 84%
21:00 +16°C° 0.3 mm 2 mps 738 mmHg 87%
22:00 +15°C° 0 mm 2 mps 738 mmHg 89%
23:00 +15°C° 0 mm 2 mps 738 mmHg 91%

20 May, Thursday

Time Temperature Precipitation Wind Pressure Humidity
00:00 +13°C° 0 mm 3 mps 738 mmHg 92%
01:00 +14°C° 0 mm 2 mps 737 mmHg 93%
02:00 +14°C° 0 mm 2 mps 737 mmHg 94%
03:00 +13°C° 0 mm 2 mps 737 mmHg 94%
04:00 +13°C° 0 mm 2 mps 737 mmHg 94%
05:00 +13°C° 0 mm 2 mps 737 mmHg 93%
06:00 +13°C° 0 mm 2 mps 737 mmHg 92%
07:00 +13°C° 0 mm 3 mps 737 mmHg 89%
08:00 +14°C° 0 mm 4 mps 737 mmHg 86%
09:00 +14°C° 0 mm 4 mps 737 mmHg 82%
10:00 +14°C° 0.1 mm 5 mps 738 mmHg 82%
11:00 +15°C° 0.1 mm 5 mps 738 mmHg 82%
12:00 +15°C° 0.1 mm 6 mps 738 mmHg 82%
13:00 +15°C° 0.3 mm 6 mps 738 mmHg 80%
14:00 +16°C° 0.3 mm 7 mps 739 mmHg 78%
15:00 +16°C° 0.3 mm 7 mps 739 mmHg 77%
16:00 +16°C° 0.1 mm 7 mps 739 mmHg 77%
17:00 +16°C° 0.1 mm 7 mps 740 mmHg 78%
18:00 +16°C° 0.1 mm 7 mps 740 mmHg 79%
19:00 +15°C° 0 mm 5 mps 740 mmHg 82%
20:00 +13°C° 0 mm 4 mps 741 mmHg 85%
21:00 +12°C° 0 mm 3 mps 741 mmHg 87%
22:00 +12°C° 0 mm 3 mps 742 mmHg 89%
23:00 +11°C° 0 mm 3 mps 742 mmHg 91%

21 May, Friday

Time Temperature Precipitation Wind Pressure Humidity
00:00 +11°C° 0 mm 3 mps 743 mmHg 93%
01:00 +11°C° 0 mm 3 mps 743 mmHg 94%
02:00 +11°C° 0 mm 3 mps 743 mmHg 94%
03:00 +11°C° 0 mm 3 mps 744 mmHg 94%
04:00 +11°C° 0 mm 3 mps 744 mmHg 93%
05:00 +12°C° 0 mm 3 mps 744 mmHg 91%
06:00 +12°C° 0 mm 3 mps 744 mmHg 90%
07:00 +12°C° 0 mm 3 mps 745 mmHg 89%
08:00 +14°C° 0 mm 2 mps 745 mmHg 88%
09:00 +14°C° 0 mm 2 mps 745 mmHg 87%
10:00 +16°C° 0.1 mm 3 mps 745 mmHg 83%
11:00 +17°C° 0.1 mm 3 mps 746 mmHg 79%
12:00 +18°C° 0.1 mm 4 mps 746 mmHg 75%
13:00 +19°C° 0.1 mm 4 mps 746 mmHg 71%
14:00 +20°C° 0.1 mm 4 mps 745 mmHg 67%
15:00 +21°C° 0.1 mm 4 mps 745 mmHg 64%
16:00 +21°C° 0.2 mm 4 mps 745 mmHg 66%
17:00 +20°C° 0.2 mm 3 mps 745 mmHg 69%
18:00 +20°C° 0.2 mm 3 mps 745 mmHg 72%
19:00 +19°C° 0.1 mm 3 mps 745 mmHg 76%
20:00 +18°C° 0.1 mm 3 mps 745 mmHg 80%
21:00 +17°C° 0.1 mm 3 mps 744 mmHg 84%
22:00 +15°C° 0.1 mm 4 mps 744 mmHg 85%
23:00 +15°C° 0.1 mm 4 mps 744 mmHg 86%

22 May, Saturday

Time Temperature Precipitation Wind Pressure Humidity
00:00 +15°C° 0.1 mm 5 mps 744 mmHg 88%
01:00 +15°C° 0 mm 6 mps 743 mmHg 86%
02:00 +15°C° 0 mm 6 mps 743 mmHg 84%
03:00 +15°C° 0 mm 7 mps 743 mmHg 83%
04:00 +15°C° 0.3 mm 6 mps 743 mmHg 86%
05:00 +15°C° 0.3 mm 5 mps 744 mmHg 89%
06:00 +15°C° 0.3 mm 4 mps 745 mmHg 92%
07:00 +15°C° 0.1 mm 4 mps 745 mmHg 90%
08:00 +16°C° 0.1 mm 3 mps 745 mmHg 89%
09:00 +16°C° 0.1 mm 3 mps 746 mmHg 87%
10:00 +17°C° 0 mm 2 mps 746 mmHg 82%
11:00 +18°C° 0 mm 2 mps 747 mmHg 77%
12:00 +19°C° 0 mm 2 mps 747 mmHg 72%
13:00 +19°C° 0 mm 2 mps 747 mmHg 69%
14:00 +20°C° 0 mm 2 mps 747 mmHg 67%
15:00 +21°C° 0 mm 2 mps 747 mmHg 65%
16:00 +20°C° 0 mm 2 mps 747 mmHg 68%
17:00 +20°C° 0 mm 3 mps 747 mmHg 70%
18:00 +20°C° 0 mm 3 mps 747 mmHg 73%
19:00 +19°C° 0 mm 3 mps 748 mmHg 74%
20:00 +18°C° 0 mm 4 mps 748 mmHg 75%
21:00 +18°C° 0 mm 4 mps 748 mmHg 76%
22:00 +17°C° 0 mm 4 mps 748 mmHg 78%
23:00 +17°C° 0 mm 4 mps 748 mmHg 79%
Show more